Tracking 22100 objects as of 19-Jan-2021
HD Live streaming from Space Station
objects crossing your sky now

STARLINK-1153

Track STARLINK-1153 now!
10-day predictions
STARLINK-1153 is classified as:


NORAD ID: 45080
Int'l Code: 2020-006AN
Perigee: 556.1 km
Apogee: 557.7 km
Inclination: 53.0 °
Period: 95.6 minutes
Semi major axis: 6927 km
RCS: Unknown
Launch date: January 29, 2020
Source: United States (US)
Launch site: AIR FORCE EASTERN TEST RANGE (AFETR)
aabbcc
Your satellite tracking list
Your tracking list is empty




NASA's NSSDC Master Catalog

Two Line Element Set (TLE):
1 45080U 20006AN  21018.35680069 -.00000035  00000-0  16783-4 0  9992
2 45080  53.0016  49.8026 0001186  94.4054 265.7070 15.05572904 53930
Source of the keplerian elements: AFSPC